Wind_Speed
8 8 8 8 9 11 13 15 16 15 16 16 16 15 15 16 14 10 7 6 14 17 20 20 15 12 7 4 8 7 3 4 4 4 5 6 4 7 8 9 12 13 5 6 27
6 8 7 7 8 10 11 14 15 14 14 16 18 19 18 15 13 13 8 6 8 12 15 17 17 11 5 4 6 6 5 9 7 4 4 8 6 7 7 9 10 14 13 12 30
6 7 7 7 9 11 11 12 13 14 15 16 16 18 18 16 6 5 6 8 9 9 9 11 10 7 5 6 6 5 7 6 8 11 6 4 5 7 3 3 16 27 25 21 34
6 7 8 8 10 11 11 12 12 13 14 15 17 18 17 10 3 3 9 13 12 9 8 6 3 3 3 4 10 4 8 17 19 23 9 4 4 4 16 16 18 25 26 26 37
7 8 9 9 10 11 13 12 13 14 15 14 15 18 18 8 4 7 13 13 12 9 8 6 4 5 8 5 9 8 6 18 25 21 17 17 13 11 12 29 17 17 26 28 35
11 10 10 10 10 12 14 13 13 14 15 14 15 18 17 5 7 10 14 16 13 10 8 7 5 11 10 10 10 10 13 22 25 24 13 6 9 8 10 21 21 18 28 30 35
11 10 10 10 11 12 13 15 14 15 15 14 14 16 13 4 10 8 12 15 14 11 10 8 7 7 14 7 13 14 15 16 17 15 6 3 11 7 20 17 21 20 27 32 36
11 11 10 11 11 12 13 15 14 15 13 12 13 14 5 7 10 14 15 14 11 10 11 11 9 10 6 14 11 5 6 16 8 14 11 12 26 5 17 18 22 25 26 32 37
8 8 8 9 10 11 13 15 16 12 9 9 8 9 2 13 20 20 15 16 18 12 10 11 9 5 5 3 7 10 14 14 13 15 8 18 12 14 21 15 21 24 24 30 35
6 6 6 7 9 11 13 14 9 5 9 4 6 4 7 18 23 18 10 9 12 14 10 2 5 3 3 5 13 13 14 12 11 3 17 21 16 6 15 20 22 24 24 26 32
6 5 4 6 8 10 12 7 5 2 6 4 6 3 13 20 15 18 14 9 6 4 3 3 1 5 8 8 8 13 19 17 8 5 7 15 20 16 14 15 17 20 24 29 33
6 4 3 4 6 8 10 7 7 5 7 4 5 7 11 18 14 18 15 5 2 3 1 3 7 13 9 4 7 9 13 23 18 8 3 12 13 10 16 21 21 24 25 29 26
5 4 3 3 5 7 9 8 6 6 3 4 6 5 10 17 9 10 14 3 2 3 2 6 10 1 7 11 12 13 13 8 15 7 8 6 11 14 14 20 21 24 27 27 32
5 4 2 1 2 7 5 6 5 6 4 6 5 3 8 22 5 17 3 4 2 4 5 9 7 9 12 13 8 14 8 15 14 12 18 11 12 9 18 23 10 21 26 31 32
6 4 2 0 3 4 4 4 4 3 4 7 6 8 21 3 11 2 14 2 5 5 2 9 4 5 10 13 11 8 10 10 13 11 6 9 6 6 7 16 23 16 27 27 31
7 5 3 1 3 3 3 4 3 5 4 6 6 9 12 5 4 9 7 8 7 4 6 17 14 6 8 6 7 6 9 9 11 7 7 14 11 7 12 19 20 24 26 36 37
8 7 3 0 2 2 3 4 5 5 4 9 5 6 7 5 7 5 6 6 2 6 4 5 4 3 4 2 7 8 6 4 6 6 5 6 14 16 8 17 23 26 35 32 39
10 7 3 1 3 2 4 5 6 2 5 4 4 8 4 6 4 5 6 6 4 5 5 5 7 6 3 2 4 1 9 7 7 3 1 6 8 5 5 11 23 38 30 36 38
11 8 4 2 1 2 2 5 6 6 4 5 7 6 6 4 2 6 3 3 4 5 4 5 6 2 5 4 3 4 9 7 2 1 3 4 4 6 8 7 9 23 31 33 36
11 7 4 2 1 2 4 2 2 5 1 2 2 2 4 5 5 6 5 3 5 2 9 5 7 4 1 4 7 5 7 3 4 5 4 3 3 3 11 11 11 16 23 28 33
11 4 4 4 3 2 3 5 4 5 4 3 2 3 5 4 2 4 4 7 1 6 12 5 4 10 3 5 1 5 3 5 3 3 3 2 1 2 10 13 4 9 20 28 33
9 2 6 6 3 3 2 5 2 3 5 4 4 5 4 4 4 3 4 5 13 10 10 4 5 6 9 5 3 4 5 4 3 4 1 3 1 7 13 7 9 10 16 24 29
6 4 6 6 3 1 3 2 3 3 4 3 3 5 2 3 4 4 4 8 17 6 5 8 3 7 9 4 2 5 3 5 6 2 0 1 4 9 10 7 9 13 17 23 27
7 1 3 3 4 6 4 3 2 8 4 4 3 2 2 4 5 5 4 7 16 9 15 8 4 4 7 13 5 7 6 4 4 2 2 3 4 8 8 5 7 12 17 21 23
8 3 5 2 3 5 4 5 2 2 6 4 2 6 4 4 4 4 3 7 7 9 12 7 5 5 13 15 6 5 7 5 4 4 4 1 5 8 9 5 5 10 16 20 21
9 7 6 3 12 7 2 4 6 4 5 4 5 2 5 6 7 5 3 3 4 8 8 7 4 8 5 7 9 6 7 4 4 4 1 2 3 3 5 4 7 11 13 14 18
15 11 6 7 5 4 4 5 6 5 7 7 7 2 6 11 14 14 13 12 12 6 4 5 5 4 4 7 13 4 5 5 3 3 3 3 1 2 4 3 4 13 17 18 19
Wind_Direction
23 20 10 12 13 7 5 1 357 354 353 352 351 351 345 338 333 323 352 331 301 275 268 273 286 301 299 253 217 167 111 193 220 185 265 333 228 188 200 173 179 197 196 193 174
17 18 22 18 13 7 4 2 2 2 359 355 351 350 348 349 359 54 51 4 324 315 284 279 284 300 289 239 202 187 170 203 206 188 233 278 278 270 176 180 208 202 194 169 176
15 15 16 11 4 3 360 1 2 359 356 355 351 349 347 349 76 54 2 342 349 343 318 300 291 302 251 231 208 206 222 203 221 229 269 259 262 232 255 223 211 208 198 183 180
14 6 358 358 359 356 354 353 356 357 353 350 347 348 350 15 81 339 332 315 319 331 323 324 338 284 254 219 220 239 229 211 229 239 235 229 285 246 225 246 244 230 209 191 187
339 337 337 342 344 347 350 346 345 347 349 347 343 345 358 3 59 340 334 335 337 303 340 353 301 268 258 273 258 243 236 234 234 238 238 256 242 238 232 246 275 224 204 201 197
318 318 319 324 332 340 345 342 339 339 342 341 341 341 350 25 2 342 338 346 347 330 318 335 324 315 300 266 270 296 259 243 240 243 238 206 251 210 258 250 245 227 207 203 201
299 303 311 316 320 329 335 338 334 333 333 332 336 334 344 26 0 4 354 356 358 344 312 325 313 333 324 295 313 291 274 272 249 243 215 152 258 200 241 250 221 230 216 205 204
288 290 297 309 315 319 327 331 326 324 323 325 331 330 340 11 356 340 333 341 342 337 311 301 303 308 259 286 308 279 251 251 222 224 232 205 247 195 225 227 228 216 218 211 207
281 283 295 309 316 320 328 328 322 321 329 334 330 339 37 344 338 331 323 314 324 329 317 295 281 245 262 223 270 243 257 249 253 211 205 210 250 219 237 217 225 216 207 213 208
288 281 296 312 318 326 335 331 326 345 347 2 12 347 349 333 338 352 352 320 314 321 328 278 207 190 239 202 238 244 258 254 264 280 212 228 235 225 203 207 213 214 209 203 209
276 261 283 311 324 335 345 353 1 325 351 14 333 292 329 342 351 1 347 332 304 318 1 330 329 231 231 245 283 272 273 269 265 338 350 258 254 224 211 203 220 217 204 204 214
240 233 267 306 326 350 6 51 42 337 319 27 8 344 351 343 321 345 357 330 343 283 317 337 250 238 230 251 274 305 282 269 278 262 253 293 288 318 240 212 209 219 216 209 204
211 211 252 306 338 357 22 39 18 1 285 331 348 352 346 333 310 307 342 305 262 300 236 253 248 3 232 233 242 259 281 279 266 254 222 260 278 273 257 213 210 214 218 212 203
191 204 220 310 350 356 18 10 5 353 65 311 351 5 346 331 273 319 348 319 269 282 308 269 253 226 239 248 222 255 276 263 256 254 251 183 271 243 227 219 209 206 200 203 204
183 191 187 43 14 2 0 3 349 343 26 310 315 331 341 358 311 313 328 284 237 237 190 264 280 255 221 232 206 253 228 265 287 249 233 199 237 218 169 229 212 209 210 210 216
176 176 166 103 26 18 27 350 337 42 271 334 326 357 353 341 303 299 318 293 277 279 237 260 258 261 209 202 198 271 256 235 254 231 232 221 211 217 209 209 224 211 211 205 202
177 170 166 71 42 47 2 337 33 106 324 313 336 345 330 301 314 349 310 321 304 323 327 289 230 245 174 263 198 199 227 198 231 208 228 248 197 243 206 213 214 199 196 187 197
176 166 156 119 64 50 360 46 72 226 249 308 323 313 337 341 289 316 323 345 320 287 293 319 330 174 142 223 307 176 240 230 239 232 260 259 224 210 292 264 227 200 176 173 187
173 167 158 141 88 42 351 52 195 195 231 342 329 33 322 336 344 335 310 303 302 348 340 296 275 279 178 140 157 359 219 229 235 275 235 229 256 250 338 309 140 150 152 160 177
175 172 171 151 103 81 74 223 145 202 168 42 306 133 308 295 341 5 334 279 305 321 341 270 275 237 109 191 220 198 305 198 206 181 236 254 277 357 316 328 158 154 158 155 172
176 167 174 157 125 98 130 215 223 235 224 179 240 282 262 295 283 289 262 289 284 308 325 288 287 288 330 216 159 218 258 256 226 243 142 237 210 165 291 293 251 148 145 148 162
181 106 176 168 69 46 131 186 190 232 224 233 252 254 265 262 267 273 258 230 325 322 314 301 287 287 242 188 226 200 269 231 255 197 302 242 358 12 315 280 127 108 127 147 159
179 152 173 178 129 289 314 281 227 229 222 204 244 214 220 273 290 220 275 282 326 334 319 349 316 306 339 5 274 287 250 283 310 265 274 346 12 352 334 53 100 118 128 139 154
166 100 134 155 119 129 139 254 256 229 255 249 247 197 237 264 227 286 292 295 314 306 312 310 273 255 309 308 304 288 300 311 290 349 312 47 314 328 4 50 93 107 127 135 148
186 179 153 176 208 128 140 161 158 268 217 221 275 226 199 279 282 239 282 298 309 3 346 352 288 314 303 296 304 284 283 289 327 0 37 31 11 338 358 37 74 116 131 137 144
174 155 128 82 132 122 192 227 193 264 208 231 212 194 205 243 217 280 270 268 269 329 346 337 285 311 276 304 327 306 342 350 343 309 69 44 32 283 50 50 129 142 140 140 148
191 164 161 147 157 131 217 197 213 190 231 232 217 226 245 256 267 273 266 256 263 297 312 301 330 316 293 316 309 348 340 343 325 297 339 20 116 249 106 124 233 165 168 166 166
Height
1548 1546 1546 1546 1544 1543 1541 1539 1537 1535 1533 1531 1530 1528 1526 1524 1524 1523 1525 1527 1525 1523 1523 1524 1525 1526 1526 1526 1526 1527 1534 1537 1533 1531 1525 1522 1520 1518 1518 1519 1520 1521 1520 1521 1524
1549 1548 1546 1546 1545 1544 1542 1540 1538 1536 1534 1532 1530 1527 1525 1524 1523 1522 1526 1525 1523 1521 1521 1521 1522 1524 1525 1523 1523 1523 1528 1528 1521 1521 1522 1520 1521 1520 1517 1517 1518 1517 1519 1520 1523
1549 1548 1548 1547 1546 1544 1543 1541 1539 1537 1534 1533 1531 1528 1526 1524 1524 1526 1525 1524 1522 1521 1520 1520 1522 1523 1523 1521 1520 1519 1517 1518 1516 1517 1518 1517 1515 1517 1518 1517 1509 1509 1515 1518 1520
1549 1549 1549 1547 1546 1545 1543 1542 1540 1537 1535 1532 1530 1528 1525 1524 1529 1526 1525 1523 1522 1521 1520 1519 1520 1521 1520 1518 1516 1517 1513 1512 1511 1511 1514 1514 1513 1512 1513 1510 1507 1506 1511 1514 1516
1549 1549 1548 1548 1547 1545 1543 1542 1540 1538 1535 1533 1530 1527 1525 1525 1526 1525 1524 1523 1521 1520 1519 1519 1520 1522 1519 1516 1515 1513 1510 1508 1508 1508 1508 1510 1510 1511 1506 1506 1508 1505 1507 1509 1513
1549 1548 1547 1547 1546 1545 1543 1542 1540 1537 1535 1533 1530 1528 1527 1526 1526 1524 1523 1522 1520 1519 1519 1520 1521 1521 1519 1517 1516 1509 1506 1505 1506 1506 1505 1506 1505 1506 1502 1501 1506 1505 1504 1505 1507
1547 1547 1546 1546 1544 1544 1542 1541 1539 1537 1534 1532 1530 1527 1527 1528 1525 1524 1523 1522 1520 1518 1519 1520 1520 1521 1520 1514 1511 1508 1507 1503 1503 1506 1502 1503 1500 1498 1499 1499 1498 1502 1505 1504 1504
1544 1545 1545 1544 1543 1543 1541 1540 1537 1535 1533 1531 1530 1528 1526 1526 1526 1524 1523 1521 1520 1519 1517 1518 1518 1518 1518 1514 1509 1509 1503 1500 1495 1498 1498 1503 1485 1492 1493 1494 1494 1495 1501 1503 1502
1542 1542 1543 1542 1542 1541 1540 1538 1535 1533 1531 1530 1530 1530 1528 1527 1525 1523 1521 1518 1516 1516 1516 1515 1516 1516 1515 1515 1514 1504 1494 1494 1493 1491 1494 1493 1483 1484 1489 1490 1491 1492 1495 1498 1501
1540 1541 1542 1541 1541 1540 1538 1535 1533 1533 1532 1530 1530 1530 1528 1527 1524 1521 1519 1517 1515 1513 1513 1512 1513 1513 1512 1512 1506 1502 1493 1489 1490 1490 1485 1482 1480 1483 1483 1486 1486 1490 1491 1494 1497
1540 1540 1540 1541 1540 1539 1538 1534 1535 1534 1532 1533 1533 1531 1530 1527 1522 1522 1518 1516 1515 1514 1515 1513 1516 1514 1510 1507 1507 1503 1497 1496 1494 1493 1493 1480 1476 1477 1480 1482 1483 1486 1486 1487 1492
1539 1540 1540 1540 1540 1538 1537 1536 1538 1540 1536 1533 1532 1530 1529 1527 1523 1521 1518 1518 1516 1515 1514 1516 1513 1502 1502 1503 1505 1506 1501 1491 1492 1494 1498 1491 1481 1481 1473 1470 1473 1480 1483 1483 1488
1539 1539 1540 1540 1540 1539 1537 1538 1538 1538 1539 1534 1532 1530 1530 1528 1523 1519 1519 1516 1515 1515 1514 1513 1501 1500 1502 1500 1501 1499 1500 1497 1496 1492 1490 1490 1481 1475 1469 1465 1466 1470 1475 1480 1481
1538 1539 1539 1540 1542 1540 1538 1538 1538 1538 1549 1538 1533 1532 1529 1525 1523 1518 1517 1518 1515 1512 1512 1508 1497 1496 1497 1500 1500 1497 1492 1492 1491 1489 1482 1483 1467 1462 1458 1455 1460 1464 1468 1472 1473
1538 1540 1540 1539 1539 1540 1540 1538 1537 1539 1572 1539 1535 1531 1529 1528 1526 1519 1517 1514 1512 1511 1514 1502 1495 1493 1493 1490 1491 1488 1487 1492 1492 1487 1483 1478 1478 1450 1448 1449 1449 1454 1459 1462 1467
1538 1539 1540 1540 1540 1540 1539 1538 1538 1554 1569 1546 1538 1535 1530 1527 1525 1520 1517 1514 1510 1507 1503 1497 1492 1490 1483 1482 1486 1487 1488 1486 1488 1485 1471 1463 1466 1441 1438 1436 1444 1448 1452 1458 1463
1538 1539 1540 1540 1540 1539 1538 1539 1554 1563 1554 1552 1545 1541 1539 1533 1526 1523 1519 1516 1516 1511 1510 1495 1485 1479 1480 1482 1482 1483 1485 1475 1474 1461 1463 1447 1451 1422 1418 1421 1424 1432 1444 1450 1454
1538 1539 1539 1540 1540 1539 1539 1541 1567 1584 1576 1552 1547 1544 1542 1537 1529 1526 1521 1520 1514 1510 1502 1498 1496 1477 1480 1480 1477 1477 1478 1465 1459 1452 1451 1448 1431 1409 1423 1419 1413 1421 1432 1439 1450
1538 1538 1539 1540 1540 1539 1540 1567 1565 1571 1557 1552 1549 1558 1554 1541 1539 1530 1525 1521 1514 1514 1508 1499 1489 1472 1473 1476 1479 1472 1470 1462 1465 1464 1466 1440 1429 1412 1414 1413 1406 1418 1427 1434 1442
1537 1539 1539 1540 1540 1539 1543 1555 1558 1553 1551 1552 1555 1562 1561 1554 1542 1536 1530 1519 1515 1513 1512 1500 1484 1472 1472 1476 1474 1473 1470 1451 1454 1467 1455 1431 1424 1419 1433 1427 1415 1420 1426 1431 1439
1536 1538 1539 1539 1539 1540 1555 1561 1554 1550 1551 1552 1554 1553 1553 1548 1547 1547 1536 1519 1514 1510 1508 1503 1492 1475 1472 1465 1464 1468 1459 1452 1446 1449 1444 1434 1426 1439 1436 1431 1423 1423 1428 1430 1438
1535 1538 1538 1538 1542 1546 1554 1551 1549 1549 1549 1549 1549 1547 1546 1546 1548 1542 1533 1523 1514 1512 1508 1502 1494 1478 1469 1464 1462 1463 1457 1451 1438 1438 1434 1431 1423 1432 1431 1424 1424 1427 1430 1434 1440
1533 1536 1537 1537 1549 1553 1549 1548 1547 1547 1547 1547 1546 1545 1545 1544 1541 1539 1528 1516 1515 1513 1507 1503 1496 1486 1466 1469 1462 1455 1450 1446 1442 1435 1435 1422 1426 1437 1432 1427 1428 1430 1434 1438 1442
1531 1537 1536 1537 1538 1540 1551 1551 1548 1545 1545 1544 1543 1544 1544 1540 1536 1533 1527 1517 1512 1511 1508 1503 1490 1488 1479 1474 1472 1460 1451 1450 1443 1437 1436 1436 1440 1440 1435 1434 1434 1436 1438 1442 1442
1527 1529 1530 1543 1539 1539 1542 1545 1546 1549 1544 1542 1541 1542 1543 1540 1539 1534 1528 1521 1511 1510 1508 1505 1495 1485 1478 1477 1471 1464 1456 1450 1446 1442 1439 1443 1442 1443 1438 1437 1437 1438 1441 1444 1447
1522 1525 1530 1535 1535 1539 1542 1544 1543 1545 1543 1540 1541 1537 1538 1537 1532 1528 1530 1527 1520 1512 1510 1507 1494 1490 1482 1471 1470 1465 1456 1454 1453 1451 1447 1447 1448 1448 1445 1441 1444 1442 1445 1449 1452
1515 1519 1523 1535 1537 1539 1540 1539 1539 1539 1536 1534 1534 1536 1534 1530 1527 1525 1525 1523 1521 1520 1515 1510 1506 1496 1482 1478 1472 1471 1462 1460 1459 1452 1452 1448 1449 1449 1447 1449 1447 1448 1450 1453 1455